Location: ?????????
(41.2286°N, 23.0068°E)
Time: 08:21:33
(UTC+00:00)

Cosmos 2173 Rocket - Pass Details

Date: 08 November 2025
Orbit: 942 x 1000 km, 83.0° (Epoch: 04 December)

Event Time Altitude Azimuth Distance (km) Brightness Sun altitude
Rises 03:31:33 0° 347° (NNW) 3,624 6.8 -18.3°
Reaches altitude 10° 03:34:06 10° 343° (NNW) 2,671 6.1 -17.8°
Maximum altitude 03:39:59 53° 269° (W) 1,144 4.0 -16.7°
Drops below altitude 10° 03:45:50 10° 194° (SSW) 2,655 6.2 -15.7°
Sets 03:48:22 0° 189° (S) 3,600 7.0 -15.2°
